SBI3201 UWKD-USTR

Flight info

Callsign SBI3201
Flight time 1h 40m
Altitude 37000
Route RIMIP1J RIMIP L94 LOMBI P135 GIBUL P983 GINPA GINPA1N
Aircraft A20N/M-SDE2E3FGHIRWXY/LB1

Departure

Time 2026-04-21 16:49
Airport Kazan International Airport (UWKD)

Arrival

Time 2026-04-21 18:30
Airport Roshchino International Airport (USTR)
Time Latitude Longitude Altitude Speed Heading
2026-04-21 16:01 55.60787 49.29759 407 ft 0 kts 33°
2026-04-21 16:05 55.60787 49.29758 407 ft 0 kts 33°
2026-04-21 16:11 55.60786 49.29758 407 ft 0 kts 33°
2026-04-21 16:35 55.60780 49.29751 407 ft 2 kts 33°
2026-04-21 16:35 55.60766 49.29735 403 ft 2 kts 32°
2026-04-21 16:36 55.60752 49.29720 405 ft 2 kts 30°
2026-04-21 16:36 55.60738 49.29705 404 ft 2 kts 28°
2026-04-21 16:36 55.60723 49.29692 401 ft 2 kts 25°
2026-04-21 16:36 55.60708 49.29680 402 ft 2 kts 20°
2026-04-21 16:37 55.60692 49.29671 404 ft 2 kts 14°
2026-04-21 16:37 55.60679 49.29665 401 ft 1 kts 30°
2026-04-21 16:37 55.60678 49.29663 407 ft 0 kts 34°
2026-04-21 16:38 55.60677 49.29663 407 ft 0 kts 34°
2026-04-21 16:42 55.60690 49.29679 403 ft 4 kts 37°
2026-04-21 16:42 55.60693 49.29684 404 ft 0 kts 37°
2026-04-21 16:42 55.60703 49.29711 427 ft 9 kts 68°
2026-04-21 16:43 55.60679 49.29822 407 ft 9 kts 124°
2026-04-21 16:43 55.60647 49.29909 407 ft 8 kts 121°
2026-04-21 16:43 55.60621 49.29979 407 ft 6 kts 126°
2026-04-21 16:43 55.60599 49.30033 407 ft 5 kts 126°
2026-04-21 16:44 55.60581 49.30072 404 ft 3 kts 134°
2026-04-21 16:44 55.60566 49.30088 407 ft 2 kts 154°
2026-04-21 16:44 55.60537 49.30086 407 ft 10 kts 199°
2026-04-21 16:44 55.60478 49.30026 407 ft 10 kts 214°
2026-04-21 16:45 55.60417 49.29953 407 ft 11 kts 214°
2026-04-21 16:45 55.60343 49.29890 407 ft 13 kts 193°
2026-04-21 16:45 55.60256 49.29895 407 ft 12 kts 163°
2026-04-21 16:45 55.60183 49.29949 407 ft 10 kts 153°
2026-04-21 16:46 55.60124 49.30002 407 ft 9 kts 154°
2026-04-21 16:46 55.60075 49.30042 407 ft 7 kts 155°
2026-04-21 16:46 55.60006 49.30099 407 ft 14 kts 154°
2026-04-21 16:46 55.59916 49.30105 407 ft 13 kts 202°
2026-04-21 16:47 55.59841 49.30013 407 ft 13 kts 232°
2026-04-21 16:47 55.59853 49.29868 408 ft 13 kts 303°
2026-04-21 16:47 55.59861 49.29848 405 ft 0 kts 305°
2026-04-21 16:48 55.59863 49.29843 406 ft 4 kts 305°
2026-04-21 16:48 55.59968 49.29569 407 ft 61 kts 305°
2026-04-21 16:48 55.60328 49.28642 408 ft 119 kts 305°
2026-04-21 16:49 55.60879 49.27195 406 ft 163 kts 301°
2026-04-21 16:49 55.61503 49.25481 972 ft 166 kts 303°
2026-04-21 16:49 55.62169 49.23761 1613 ft 171 kts 309°
2026-04-21 16:49 55.62903 49.22020 2030 ft 188 kts 309°
2026-04-21 16:50 55.63708 49.20031 2394 ft 209 kts 305°
2026-04-21 16:50 55.64573 49.17791 2630 ft 230 kts 304°
2026-04-21 16:50 55.65479 49.15420 3302 ft 232 kts 302°
2026-04-21 16:50 55.66127 49.12856 3853 ft 232 kts 272°
2026-04-21 16:51 55.65847 49.10159 3979 ft 223 kts 234°
2026-04-21 16:51 55.64781 49.08255 3995 ft 218 kts 209°
2026-04-21 16:51 55.63629 49.06482 3994 ft 226 kts 234°
2026-04-21 16:51 55.62949 49.03953 4001 ft 229 kts 241°
2026-04-21 16:52 55.62268 49.01405 4011 ft 230 kts 239°
2026-04-21 16:52 55.61550 48.98847 4689 ft 231 kts 239°
2026-04-21 16:52 55.60829 48.96313 5550 ft 231 kts 239°
2026-04-21 16:52 55.60099 48.93774 6326 ft 232 kts 239°
2026-04-21 16:53 55.59360 48.91216 7051 ft 235 kts 239°
2026-04-21 16:53 55.58610 48.88633 7795 ft 237 kts 239°
2026-04-21 16:53 55.57854 48.86032 8552 ft 239 kts 239°
2026-04-21 16:53 55.57089 48.83399 9311 ft 242 kts 239°
2026-04-21 16:54 55.56315 48.80742 10022 ft 245 kts 239°
2026-04-21 16:54 55.55529 48.78058 10706 ft 247 kts 239°
2026-04-21 16:54 55.54736 48.75344 11395 ft 250 kts 239°
2026-04-21 16:54 55.53731 48.72801 11700 ft 265 kts 218°
2026-04-21 16:55 55.52079 48.71223 11895 ft 282 kts 191°
2026-04-21 16:55 55.50076 48.71315 12070 ft 302 kts 162°
2026-04-21 16:55 55.48252 48.73335 12214 ft 326 kts 133°
2026-04-21 16:55 55.47153 48.76918 12527 ft 345 kts 105°
2026-04-21 16:56 55.47022 48.81206 13090 ft 356 kts 86°
2026-04-21 16:56 55.47493 48.85531 13720 ft 363 kts 77°
2026-04-21 16:56 55.48239 48.89824 14300 ft 368 kts 74°
2026-04-21 16:56 55.49050 48.94127 14893 ft 371 kts 74°
2026-04-21 16:57 55.49821 48.98488 15492 ft 374 kts 76°
2026-04-21 16:57 55.50535 49.02924 16089 ft 377 kts 77°
2026-04-21 16:57 55.51207 49.07412 16671 ft 380 kts 78°
2026-04-21 16:57 55.51860 49.11942 17250 ft 383 kts 78°
2026-04-21 16:58 55.52512 49.16507 17818 ft 385 kts 78°
2026-04-21 16:58 55.53173 49.21116 18336 ft 388 kts 78°
2026-04-21 16:58 55.53841 49.25748 18842 ft 390 kts 79°
2026-04-21 16:58 55.54516 49.30397 19352 ft 392 kts 79°
2026-04-21 16:59 55.55201 49.35065 19628 ft 393 kts 79°
2026-04-21 16:59 55.55885 49.39733 19688 ft 392 kts 79°
2026-04-21 16:59 55.56568 49.44400 19700 ft 392 kts 79°
2026-04-21 16:59 55.57245 49.49059 19696 ft 392 kts 79°
2026-04-21 17:00 55.57917 49.53721 19697 ft 391 kts 79°
2026-04-21 17:00 55.58588 49.58376 19694 ft 391 kts 79°
2026-04-21 17:00 55.59032 49.61467 19687 ft 391 kts 79°
2026-04-21 17:00 55.59926 49.67713 19690 ft 391 kts 79°
2026-04-21 17:01 55.60593 49.72402 20057 ft 394 kts 79°
2026-04-21 17:01 55.61262 49.77114 20574 ft 396 kts 80°
2026-04-21 17:01 55.61925 49.81801 21040 ft 398 kts 80°
2026-04-21 17:01 55.62597 49.86562 21515 ft 400 kts 80°
2026-04-21 17:02 55.63281 49.91416 21976 ft 403 kts 80°
2026-04-21 17:02 55.63951 49.96177 22423 ft 405 kts 80°
2026-04-21 17:02 55.64630 50.01023 22876 ft 407 kts 80°
2026-04-21 17:02 55.65312 50.05910 23298 ft 410 kts 81°
2026-04-21 17:03 55.65994 50.10821 23662 ft 412 kts 81°
2026-04-21 17:03 55.66680 50.15767 24016 ft 414 kts 81°
2026-04-21 17:03 55.67367 50.20733 24367 ft 417 kts 81°
2026-04-21 17:03 55.68057 50.25739 24701 ft 419 kts 81°
2026-04-21 17:04 55.68747 50.30771 25040 ft 421 kts 81°
2026-04-21 17:04 55.69439 50.35828 25355 ft 424 kts 81°
2026-04-21 17:04 55.70135 50.40918 25686 ft 426 kts 81°
2026-04-21 17:04 55.70833 50.46032 26010 ft 428 kts 81°
2026-04-21 17:05 55.71531 50.51184 26335 ft 430 kts 81°
2026-04-21 17:05 55.72227 50.56362 26658 ft 433 kts 81°
2026-04-21 17:05 55.72927 50.61578 26978 ft 435 kts 81°
2026-04-21 17:05 55.73628 50.66830 27281 ft 438 kts 82°
2026-04-21 17:06 55.74332 50.72107 27578 ft 440 kts 82°
2026-04-21 17:06 55.75040 50.77406 27861 ft 443 kts 82°
2026-04-21 17:06 55.75749 50.82741 28144 ft 445 kts 82°
2026-04-21 17:06 55.76457 50.88110 28416 ft 448 kts 82°
2026-04-21 17:07 55.76927 50.91679 28578 ft 449 kts 82°
2026-04-21 17:07 55.77871 50.98853 28936 ft 452 kts 82°
2026-04-21 17:07 55.78587 51.04313 29205 ft 455 kts 82°
2026-04-21 17:07 55.79305 51.09803 29433 ft 457 kts 82°
2026-04-21 17:08 55.80023 51.15320 29688 ft 459 kts 82°
2026-04-21 17:08 55.80738 51.20851 29997 ft 459 kts 82°
2026-04-21 17:08 55.81451 51.26389 30256 ft 460 kts 82°
2026-04-21 17:08 55.82163 51.31943 30490 ft 461 kts 82°
2026-04-21 17:09 55.83582 51.43095 31005 ft 463 kts 82°
2026-04-21 17:09 55.84289 51.48695 31229 ft 464 kts 82°
2026-04-21 17:09 55.84996 51.54316 31481 ft 465 kts 82°
2026-04-21 17:10 55.85703 51.59940 31740 ft 466 kts 82°
2026-04-21 17:10 55.86410 51.65575 31999 ft 467 kts 82°
2026-04-21 17:10 55.87115 51.71230 32252 ft 468 kts 82°
2026-04-21 17:10 55.87817 51.76894 32504 ft 469 kts 82°
2026-04-21 17:11 55.88518 51.82562 32752 ft 469 kts 82°
2026-04-21 17:11 55.89210 51.88178 33000 ft 470 kts 82°
2026-04-21 17:11 55.89918 51.93938 33265 ft 471 kts 82°
2026-04-21 17:11 55.90608 51.99578 33511 ft 472 kts 82°
2026-04-21 17:12 55.91305 52.05298 33748 ft 473 kts 82°
2026-04-21 17:12 55.92001 52.11020 33976 ft 473 kts 82°
2026-04-21 17:12 55.92695 52.16765 34196 ft 473 kts 82°
2026-04-21 17:12 55.93386 52.22499 34417 ft 474 kts 82°
2026-04-21 17:13 55.94076 52.28248 34632 ft 474 kts 81°
2026-04-21 17:13 55.94761 52.33995 34861 ft 474 kts 81°
2026-04-21 17:13 55.95443 52.39753 35066 ft 474 kts 81°
2026-04-21 17:13 55.96123 52.45511 35275 ft 474 kts 81°
2026-04-21 17:14 55.96800 52.51272 35457 ft 474 kts 81°
2026-04-21 17:14 55.97472 52.57035 35672 ft 474 kts 81°
2026-04-21 17:14 55.98142 52.62806 35861 ft 475 kts 81°
2026-04-21 17:14 55.98814 52.68582 36043 ft 475 kts 81°
2026-04-21 17:15 55.99483 52.74352 36219 ft 475 kts 81°
2026-04-21 17:15 56.00151 52.80137 36404 ft 475 kts 81°
2026-04-21 17:15 56.00813 52.85926 36583 ft 475 kts 81°
2026-04-21 17:15 56.01471 52.91718 36680 ft 476 kts 81°
2026-04-21 17:16 56.02789 53.03338 36701 ft 477 kts 81°
2026-04-21 17:16 56.04102 53.14985 36699 ft 477 kts 81°
2026-04-21 17:17 56.05403 53.26645 36708 ft 478 kts 81°
2026-04-21 17:17 56.06683 53.38315 36700 ft 478 kts 81°
2026-04-21 17:18 56.07953 53.49920 36706 ft 479 kts 81°
2026-04-21 17:18 56.08573 53.55785 36811 ft 480 kts 83°
2026-04-21 17:18 56.08841 53.61723 36694 ft 476 kts 90°
2026-04-21 17:19 56.09042 53.73564 36678 ft 476 kts 90°
2026-04-21 17:19 56.09271 53.85439 36686 ft 478 kts 90°
2026-04-21 17:20 56.09489 53.97348 36691 ft 479 kts 90°
2026-04-21 17:20 56.09677 54.09280 36698 ft 480 kts 90°
2026-04-21 17:21 56.09816 54.19205 36701 ft 480 kts 90°
2026-04-21 17:21 56.09974 54.31169 36711 ft 480 kts 90°
2026-04-21 17:22 56.10757 54.43074 36714 ft 482 kts 82°
2026-04-21 17:22 56.11808 54.54944 36716 ft 483 kts 83°
2026-04-21 17:23 56.12843 54.66829 36719 ft 483 kts 83°
2026-04-21 17:23 56.13853 54.78737 36719 ft 483 kts 83°
2026-04-21 17:24 56.14856 54.90644 36716 ft 483 kts 83°
2026-04-21 17:24 56.15844 55.02564 36717 ft 483 kts 83°
2026-04-21 17:25 56.16830 55.14492 36719 ft 483 kts 83°
2026-04-21 17:25 56.17801 55.26335 36715 ft 483 kts 84°
2026-04-21 17:26 56.18759 55.38286 36717 ft 484 kts 84°
2026-04-21 17:26 56.19711 55.50233 36715 ft 484 kts 84°
2026-04-21 17:27 56.20642 55.62201 36715 ft 484 kts 84°
2026-04-21 17:27 56.21577 55.74163 36714 ft 484 kts 84°
2026-04-21 17:28 56.22505 55.86141 36716 ft 484 kts 84°
2026-04-21 17:28 56.23410 55.98125 36715 ft 484 kts 84°
2026-04-21 17:29 56.24303 56.10120 36717 ft 484 kts 84°
2026-04-21 17:29 56.25187 56.22119 36723 ft 484 kts 85°
2026-04-21 17:30 56.26064 56.34122 36724 ft 484 kts 85°
2026-04-21 17:30 56.26926 56.46137 36727 ft 484 kts 85°
2026-04-21 17:31 56.27769 56.58170 36728 ft 485 kts 85°
2026-04-21 17:31 56.28619 56.70196 36726 ft 485 kts 85°
2026-04-21 17:32 56.29455 56.82254 36725 ft 485 kts 85°
2026-04-21 17:32 56.30274 56.94313 36726 ft 486 kts 85°
2026-04-21 17:33 56.31083 57.06395 36729 ft 486 kts 86°
2026-04-21 17:33 56.31880 57.18500 36729 ft 487 kts 86°
2026-04-21 17:34 56.32664 57.30607 36729 ft 487 kts 86°
2026-04-21 17:34 56.33507 57.42732 36735 ft 489 kts 79°
2026-04-21 17:35 56.35648 57.54321 36719 ft 491 kts 72°
2026-04-21 17:35 56.37946 57.65939 36738 ft 492 kts 72°
2026-04-21 17:36 56.40231 57.77594 36736 ft 494 kts 72°
2026-04-21 17:36 56.42529 57.89395 36744 ft 502 kts 72°
2026-04-21 17:37 56.44844 58.01380 36740 ft 507 kts 72°
2026-04-21 17:37 56.47155 58.13435 36738 ft 507 kts 72°
2026-04-21 17:38 56.49453 58.25500 36736 ft 507 kts 72°
2026-04-21 17:38 56.51726 58.37475 36738 ft 506 kts 72°
2026-04-21 17:39 56.54003 58.49547 36740 ft 507 kts 73°
2026-04-21 17:39 56.56267 58.61648 36748 ft 507 kts 73°
2026-04-21 17:40 56.58528 58.73754 36747 ft 507 kts 73°
2026-04-21 17:40 56.60784 58.85886 36751 ft 507 kts 73°
2026-04-21 17:41 56.63014 58.98033 36749 ft 507 kts 73°
2026-04-21 17:41 56.65229 59.10205 36747 ft 508 kts 73°
2026-04-21 17:42 56.67438 59.22405 36746 ft 508 kts 73°
2026-04-21 17:42 56.69640 59.34628 36744 ft 509 kts 74°
2026-04-21 17:43 56.71836 59.46874 36743 ft 509 kts 74°
2026-04-21 17:43 56.74006 59.59070 36751 ft 509 kts 74°
2026-04-21 17:44 56.76176 59.71361 36753 ft 510 kts 74°
2026-04-21 17:44 56.78335 59.83681 36759 ft 510 kts 74°
2026-04-21 17:45 56.80483 59.96016 36761 ft 510 kts 74°
2026-04-21 17:45 56.82619 60.08374 36761 ft 510 kts 74°
2026-04-21 17:46 56.84752 60.20741 36763 ft 510 kts 74°
2026-04-21 17:46 56.86871 60.33111 36765 ft 510 kts 75°
2026-04-21 17:47 56.88973 60.45506 36767 ft 510 kts 75°
2026-04-21 17:47 56.91054 60.57909 36765 ft 510 kts 75°
2026-04-21 17:48 56.93123 60.70327 36778 ft 510 kts 75°
2026-04-21 17:48 56.95187 60.82762 36772 ft 510 kts 75°
2026-04-21 17:49 56.97234 60.95190 36761 ft 510 kts 75°
2026-04-21 17:49 56.99274 61.07643 36768 ft 510 kts 75°
2026-04-21 17:50 57.01300 61.20108 36769 ft 510 kts 75°
2026-04-21 17:50 57.03316 61.32578 36766 ft 510 kts 75°
2026-04-21 17:51 57.05317 61.45061 36766 ft 509 kts 75°
2026-04-21 17:51 57.07300 61.57555 36765 ft 509 kts 75°
2026-04-21 17:52 57.09271 61.70057 36774 ft 509 kts 76°
2026-04-21 17:52 57.11230 61.82577 36773 ft 509 kts 76°
2026-04-21 17:53 57.13173 61.95103 36282 ft 505 kts 76°
2026-04-21 17:53 57.14124 62.01278 36028 ft 497 kts 76°
2026-04-21 17:53 57.15062 62.07387 35784 ft 495 kts 76°
2026-04-21 17:54 57.15987 62.13407 35322 ft 495 kts 77°
2026-04-21 17:54 57.16929 62.19557 34323 ft 503 kts 77°
2026-04-21 17:54 57.17884 62.25820 33229 ft 512 kts 77°
2026-04-21 17:54 57.18848 62.32165 32191 ft 517 kts 77°
2026-04-21 17:55 57.19819 62.38550 31370 ft 516 kts 77°
2026-04-21 17:55 57.20782 62.44893 30487 ft 509 kts 77°
2026-04-21 17:55 57.21725 62.51135 29666 ft 498 kts 77°
2026-04-21 17:55 57.22641 62.57217 28972 ft 488 kts 77°
2026-04-21 17:56 57.23538 62.63219 28291 ft 484 kts 77°
2026-04-21 17:56 57.24420 62.69190 27642 ft 480 kts 77°
2026-04-21 17:56 57.25289 62.75112 26979 ft 476 kts 77°
2026-04-21 17:56 57.26149 62.81002 26329 ft 473 kts 77°
2026-04-21 17:57 57.27003 62.86856 25690 ft 470 kts 77°
2026-04-21 17:57 57.27851 62.92667 25053 ft 467 kts 77°
2026-04-21 17:57 57.28694 62.98438 24425 ft 464 kts 77°
2026-04-21 17:57 57.29529 63.04178 23814 ft 461 kts 77°
2026-04-21 17:58 57.30355 63.09884 23199 ft 458 kts 77°
2026-04-21 17:58 57.31169 63.15541 22609 ft 453 kts 77°
2026-04-21 17:58 57.31975 63.21146 22067 ft 447 kts 77°
2026-04-21 17:58 57.32765 63.26664 21550 ft 441 kts 77°
2026-04-21 17:59 57.33543 63.32120 21043 ft 436 kts 77°
2026-04-21 17:59 57.34313 63.37538 20534 ft 432 kts 78°
2026-04-21 17:59 57.35070 63.42887 20028 ft 428 kts 78°
2026-04-21 17:59 57.35820 63.48195 19501 ft 424 kts 78°
2026-04-21 18:00 57.36564 63.53468 18990 ft 422 kts 78°
2026-04-21 18:00 57.37300 63.58712 18466 ft 420 kts 78°
2026-04-21 18:00 57.38027 63.63942 17918 ft 418 kts 78°
2026-04-21 18:00 57.38747 63.69146 17345 ft 415 kts 78°
2026-04-21 18:01 57.39240 63.74369 16807 ft 408 kts 89°
2026-04-21 18:01 57.39142 63.79634 15828 ft 411 kts 103°
2026-04-21 18:01 57.38462 63.84703 15429 ft 401 kts 109°
2026-04-21 18:01 57.37750 63.89632 14749 ft 392 kts 109°
2026-04-21 18:02 57.37273 63.92832 14226 ft 384 kts 113°
2026-04-21 18:02 57.35853 63.98642 13875 ft 364 kts 120°
2026-04-21 18:02 57.34777 64.02858 13537 ft 361 kts 119°
2026-04-21 18:02 57.33707 64.07052 12527 ft 359 kts 119°
2026-04-21 18:03 57.32652 64.11175 11935 ft 351 kts 119°
2026-04-21 18:03 57.31609 64.15249 11443 ft 349 kts 119°
2026-04-21 18:03 57.30566 64.19294 10945 ft 347 kts 119°
2026-04-21 18:03 57.29541 64.23248 10462 ft 345 kts 120°
2026-04-21 18:04 57.28512 64.27213 10194 ft 335 kts 120°
2026-04-21 18:04 57.27521 64.31029 10065 ft 323 kts 120°
2026-04-21 18:04 57.26567 64.34698 9940 ft 311 kts 120°
2026-04-21 18:04 57.25646 64.38237 9819 ft 300 kts 120°
2026-04-21 18:05 57.24753 64.41658 9621 ft 293 kts 120°
2026-04-21 18:05 57.23865 64.45040 9219 ft 292 kts 120°
2026-04-21 18:05 57.22985 64.48389 8881 ft 289 kts 121°
2026-04-21 18:05 57.22108 64.51721 8475 ft 288 kts 121°
2026-04-21 18:06 57.21233 64.55033 8088 ft 287 kts 121°
2026-04-21 18:06 57.20363 64.58330 7695 ft 285 kts 120°
2026-04-21 18:06 57.19504 64.61593 7156 ft 281 kts 120°
2026-04-21 18:06 57.18655 64.64824 6521 ft 279 kts 120°
2026-04-21 18:07 57.17810 64.68028 5865 ft 277 kts 120°
2026-04-21 18:07 57.16972 64.71195 5294 ft 272 kts 121°
2026-04-21 18:07 57.16151 64.74291 4824 ft 267 kts 121°
2026-04-21 18:07 57.15339 64.77356 4368 ft 264 kts 121°
2026-04-21 18:08 57.14538 64.80376 3923 ft 261 kts 122°
2026-04-21 18:08 57.13752 64.83325 3546 ft 258 kts 122°
2026-04-21 18:08 57.12969 64.86256 3237 ft 252 kts 122°
2026-04-21 18:08 57.12199 64.89135 2895 ft 248 kts 122°
2026-04-21 18:09 57.11478 64.91857 2982 ft 226 kts 122°
2026-04-21 18:09 57.10816 64.94365 3004 ft 212 kts 123°
2026-04-21 18:09 57.10379 64.96001 3006 ft 210 kts 123°
2026-04-21 18:09 57.09520 64.99183 3004 ft 209 kts 123°
2026-04-21 18:10 57.09082 65.00803 3009 ft 209 kts 123°
2026-04-21 18:10 57.08443 65.03168 3007 ft 209 kts 123°
2026-04-21 18:10 57.07809 65.05565 3004 ft 205 kts 119°
2026-04-21 18:10 57.07622 65.08138 3001 ft 209 kts 89°
2026-04-21 18:11 57.08235 65.10602 3004 ft 221 kts 54°
2026-04-21 18:11 57.09319 65.12627 3006 ft 220 kts 55°
2026-04-21 18:11 57.10322 65.14737 3010 ft 216 kts 56°
2026-04-21 18:11 57.11286 65.16711 3015 ft 199 kts 55°
2026-04-21 18:12 57.12174 65.18501 3019 ft 178 kts 56°
2026-04-21 18:12 57.12984 65.20137 3002 ft 169 kts 57°
2026-04-21 18:12 57.13767 65.21723 3004 ft 166 kts 57°
2026-04-21 18:12 57.14539 65.23286 3002 ft 165 kts 57°
2026-04-21 18:13 57.15312 65.24848 3008 ft 165 kts 57°
2026-04-21 18:13 57.16083 65.26409 3003 ft 165 kts 57°
2026-04-21 18:13 57.16865 65.28013 3034 ft 189 kts 57°
2026-04-21 18:13 57.17814 65.30116 3000 ft 230 kts 57°
2026-04-21 18:14 57.19903 65.34871 3002 ft 241 kts 57°
2026-04-21 18:14 57.20962 65.37278 3004 ft 242 kts 57°
2026-04-21 18:14 57.22022 65.39683 3003 ft 242 kts 57°
2026-04-21 18:15 57.23079 65.42082 3004 ft 241 kts 57°
2026-04-21 18:15 57.24323 65.44188 2999 ft 249 kts 31°
2026-04-21 18:15 57.26010 65.44947 3007 ft 255 kts 357°
2026-04-21 18:15 57.27689 65.44053 3007 ft 251 kts 323°
2026-04-21 18:16 57.28858 65.41794 3006 ft 240 kts 289°
2026-04-21 18:16 57.29196 65.38917 3010 ft 223 kts 255°
2026-04-21 18:16 57.28760 65.36261 3008 ft 213 kts 237°
2026-04-21 18:16 57.28008 65.33959 3004 ft 209 kts 229°
2026-04-21 18:17 57.27214 65.31703 3004 ft 210 kts 230°
2026-04-21 18:17 57.26424 65.29440 3005 ft 209 kts 230°
2026-04-21 18:17 57.25645 65.27164 3007 ft 211 kts 233°
2026-04-21 18:17 57.24948 65.24780 3007 ft 211 kts 235°
2026-04-21 18:18 57.24264 65.22347 3011 ft 222 kts 235°
2026-04-21 18:18 57.23504 65.19702 3011 ft 242 kts 235°
2026-04-21 18:18 57.22701 65.16928 3002 ft 246 kts 235°
2026-04-21 18:18 57.21894 65.14136 3003 ft 247 kts 235°
2026-04-21 18:19 57.21083 65.11336 3005 ft 247 kts 235°
2026-04-21 18:19 57.20276 65.08551 3002 ft 246 kts 235°
2026-04-21 18:19 57.19464 65.05764 3006 ft 246 kts 235°
2026-04-21 18:19 57.18656 65.02994 3003 ft 246 kts 235°
2026-04-21 18:20 57.17846 65.00226 3005 ft 246 kts 234°
2026-04-21 18:20 57.16986 64.97502 3003 ft 245 kts 233°
2026-04-21 18:20 57.16102 64.94826 3002 ft 244 kts 232°
2026-04-21 18:20 57.15195 64.92180 3004 ft 244 kts 231°
2026-04-21 18:21 57.14284 64.89554 2999 ft 243 kts 231°
2026-04-21 18:21 57.13372 64.86926 3003 ft 243 kts 231°
2026-04-21 18:21 57.12457 64.84359 2999 ft 243 kts 231°
2026-04-21 18:21 57.11507 64.81746 3001 ft 243 kts 230°
2026-04-21 18:22 57.10571 64.79202 2996 ft 243 kts 230°
2026-04-21 18:22 57.09623 64.76635 3003 ft 243 kts 230°
2026-04-21 18:22 57.08669 64.74062 2993 ft 244 kts 230°
2026-04-21 18:22 57.07577 64.71755 2992 ft 236 kts 210°
2026-04-21 18:23 57.06070 64.70790 2992 ft 230 kts 181°
2026-04-21 18:23 57.04528 64.71490 2992 ft 234 kts 152°
2026-04-21 18:23 57.03398 64.73668 2988 ft 245 kts 122°
2026-04-21 18:23 57.03021 64.76778 2989 ft 259 kts 92°
2026-04-21 18:24 57.03434 64.80065 2993 ft 269 kts 77°
2026-04-21 18:24 57.04062 64.83306 2987 ft 266 kts 76°
2026-04-21 18:24 57.04697 64.86374 2990 ft 249 kts 75°
2026-04-21 18:24 57.05264 64.89255 2988 ft 232 kts 85°
2026-04-21 18:25 57.05541 64.92132 2995 ft 228 kts 88°
2026-04-21 18:25 57.05812 64.94996 2993 ft 227 kts 88°
2026-04-21 18:25 57.06083 64.97854 2998 ft 227 kts 88°
2026-04-21 18:25 57.06352 65.00704 3000 ft 227 kts 88°
2026-04-21 18:26 57.06624 65.03569 2998 ft 228 kts 88°
2026-04-21 18:26 57.06930 65.06429 3002 ft 231 kts 81°
2026-04-21 18:26 57.07596 65.09092 2941 ft 230 kts 63°
2026-04-21 18:26 57.08615 65.11412 2650 ft 235 kts 55°
2026-04-21 18:27 57.09728 65.13624 2360 ft 235 kts 55°
2026-04-21 18:27 57.10838 65.15832 2068 ft 234 kts 55°
2026-04-21 18:27 57.11921 65.18004 1776 ft 224 kts 55°
2026-04-21 18:27 57.12924 65.20015 1507 ft 204 kts 56°
2026-04-21 18:28 57.13833 65.21846 1285 ft 184 kts 54°
2026-04-21 18:28 57.14663 65.23527 1041 ft 170 kts 52°
2026-04-21 18:28 57.15428 65.25079 803 ft 157 kts 51°
2026-04-21 18:28 57.16124 65.26489 620 ft 144 kts 51°
2026-04-21 18:29 57.16779 65.27818 454 ft 139 kts 51°
2026-04-21 18:29 57.17407 65.29099 371 ft 124 kts 49°
2026-04-21 18:29 57.17894 65.30103 361 ft 88 kts 47°
2026-04-21 18:29 57.18218 65.30755 362 ft 53 kts 48°
2026-04-21 18:30 57.18368 65.31069 357 ft 18 kts 49°
2026-04-21 18:30 57.18426 65.31188 354 ft 0 kts 45°